• In Russia
  • List of Countries
  • For 7 days
  • Water Temperature
  • Satellite Maps
  • Weather Map
  • Weather Widgets
  • user-avatar
    Login

    Hourly Weather Graz

    Today, 18 January, Thursday

    Time Temperature Precipitation Wind Pressure Humidity
    00:00 -2°C° 0.2 mm 3 mps 718 mmHg 78%
    01:00 -2°C° 0.2 mm 3 mps 718 mmHg 77%
    02:00 -2°C° 0.2 mm 3 mps 719 mmHg 78%
    03:00 -2°C° 0.2 mm 2 mps 719 mmHg 79%
    04:00 -2°C° 0.2 mm 2 mps 719 mmHg 81%
    05:00 -2°C° 0.1 mm 2 mps 720 mmHg 81%
    06:00 -2°C° 0.1 mm 2 mps 720 mmHg 81%
    07:00 0°C° 0.1 mm 1 mps 720 mmHg 81%
    08:00 +1°C° 0.1 mm 1 mps 720 mmHg 78%
    09:00 +2°C° 0.1 mm 1 mps 720 mmHg 75%
    10:00 +3°C° 0.1 mm 1 mps 720 mmHg 72%
    11:00 +3°C° 0 mm 2 mps 719 mmHg 70%
    12:00 +4°C° 0 mm 2 mps 718 mmHg 67%
    13:00 +4°C° 0 mm 2 mps 718 mmHg 65%
    14:00 +4°C° 0 mm 2 mps 717 mmHg 67%
    15:00 +4°C° 0 mm 2 mps 717 mmHg 70%
    16:00 +3°C° 0 mm 2 mps 716 mmHg 72%
    17:00 +2°C° 0 mm 2 mps 716 mmHg 74%
    18:00 +1°C° 0 mm 2 mps 716 mmHg 77%
    19:00 +1°C° 0 mm 2 mps 716 mmHg 79%
    20:00 +1°C° 0 mm 2 mps 716 mmHg 79%
    21:00 +1°C° 0 mm 2 mps 715 mmHg 80%
    22:00 +1°C° 0 mm 2 mps 715 mmHg 80%
    23:00 +1°C° 0.2 mm 2 mps 716 mmHg 81%

    Tomorrow, 19 January, Friday

    Time Temperature Precipitation Wind Pressure Humidity
    00:00 +1°C° 0.2 mm 2 mps 716 mmHg 82%
    01:00 +2°C° 0.2 mm 1 mps 716 mmHg 83%
    02:00 +2°C° 0.2 mm 1 mps 716 mmHg 85%
    03:00 +2°C° 0.2 mm 1 mps 715 mmHg 86%
    04:00 +1°C° 0.2 mm 1 mps 715 mmHg 87%
    05:00 +2°C° 0.3 mm 1 mps 715 mmHg 88%
    06:00 +2°C° 0.3 mm 1 mps 716 mmHg 88%
    07:00 +3°C° 0.3 mm 1 mps 716 mmHg 89%
    08:00 +3°C° 0.2 mm 1 mps 716 mmHg 87%
    09:00 +4°C° 0.2 mm 1 mps 717 mmHg 86%
    10:00 +5°C° 0.2 mm 1 mps 717 mmHg 84%
    11:00 +5°C° 0.4 mm 1 mps 717 mmHg 83%
    12:00 +5°C° 0.4 mm 1 mps 718 mmHg 82%
    13:00 +5°C° 0.4 mm 1 mps 718 mmHg 82%
    14:00 +5°C° 0.7 mm 1 mps 718 mmHg 83%
    15:00 +4°C° 0.7 mm 1 mps 718 mmHg 84%
    16:00 +4°C° 0.7 mm 1 mps 718 mmHg 85%
    17:00 +3°C° 0.2 mm 1 mps 719 mmHg 86%
    18:00 +2°C° 0.2 mm 0 mps 719 mmHg 87%
    19:00 +1°C° 0.2 mm 0 mps 720 mmHg 88%
    20:00 +1°C° 0.2 mm 0 mps 720 mmHg 89%
    21:00 +1°C° 0.2 mm 0 mps 721 mmHg 90%
    22:00 +2°C° 0.2 mm 1 mps 721 mmHg 91%
    23:00 +1°C° 0.2 mm 1 mps 721 mmHg 92%

    Day after tomorrow, 20 January, Saturday

    Time Temperature Precipitation Wind Pressure Humidity
    00:00 +1°C° 0.2 mm 1 mps 721 mmHg 93%
    01:00 +1°C° 0.2 mm 1 mps 721 mmHg 94%
    02:00 0°C° 0 mm 1 mps 721 mmHg 94%
    03:00 0°C° 0 mm 1 mps 720 mmHg 94%
    04:00 -1°C° 0 mm 1 mps 720 mmHg 94%
    05:00 -1°C° 0 mm 1 mps 720 mmHg 93%
    06:00 -1°C° 0 mm 1 mps 720 mmHg 93%
    07:00 -1°C° 0 mm 1 mps 720 mmHg 92%
    08:00 0°C° 0 mm 1 mps 720 mmHg 89%
    09:00 +1°C° 0 mm 1 mps 720 mmHg 86%
    10:00 +2°C° 0 mm 1 mps 720 mmHg 83%
    11:00 +3°C° 0.1 mm 1 mps 720 mmHg 79%
    12:00 +4°C° 0.1 mm 1 mps 719 mmHg 75%
    13:00 +5°C° 0.1 mm 1 mps 719 mmHg 71%
    14:00 +4°C° 0.1 mm 1 mps 719 mmHg 74%
    15:00 +3°C° 0.1 mm 1 mps 719 mmHg 78%
    16:00 +2°C° 0.1 mm 0 mps 718 mmHg 82%
    17:00 +2°C° 0 mm 1 mps 719 mmHg 84%
    18:00 +1°C° 0 mm 1 mps 719 mmHg 85%
    19:00 0°C° 0 mm 1 mps 719 mmHg 87%
    20:00 0°C° 0 mm 1 mps 719 mmHg 87%
    21:00 0°C° 0 mm 1 mps 719 mmHg 87%
    22:00 -1°C° 0 mm 1 mps 719 mmHg 87%
    23:00 -1°C° 0.1 mm 1 mps 719 mmHg 88%

    21 January, Sunday

    Time Temperature Precipitation Wind Pressure Humidity
    00:00 -1°C° 0.1 mm 1 mps 720 mmHg 89%
    01:00 -1°C° 0.1 mm 1 mps 720 mmHg 90%
    02:00 -1°C° 0.2 mm 1 mps 720 mmHg 90%
    03:00 -1°C° 0.2 mm 1 mps 721 mmHg 91%
    04:00 -3°C° 0.2 mm 2 mps 721 mmHg 91%
    05:00 -1°C° 0.1 mm 1 mps 722 mmHg 91%
    06:00 -2°C° 0.1 mm 1 mps 722 mmHg 91%
    07:00 -2°C° 0.1 mm 1 mps 723 mmHg 91%
    08:00 -1°C° 0 mm 1 mps 724 mmHg 87%
    09:00 0°C° 0 mm 1 mps 725 mmHg 82%
    10:00 -1°C° 0 mm 2 mps 725 mmHg 78%
    11:00 +1°C° 0 mm 2 mps 725 mmHg 73%
    12:00 +1°C° 0 mm 2 mps 726 mmHg 67%
    13:00 +1°C° 0 mm 3 mps 726 mmHg 62%
    14:00 +1°C° 0 mm 2 mps 726 mmHg 65%
    15:00 +2°C° 0 mm 1 mps 726 mmHg 69%
    16:00 +1°C° 0 mm 1 mps 726 mmHg 73%
    17:00 0°C° 0 mm 1 mps 727 mmHg 75%
    18:00 -1°C° 0 mm 1 mps 727 mmHg 78%
    19:00 -3°C° 0 mm 1 mps 727 mmHg 80%
    20:00 -2°C° 0 mm 1 mps 727 mmHg 80%
    21:00 -2°C° 0 mm 1 mps 727 mmHg 80%
    22:00 -2°C° 0 mm 1 mps 728 mmHg 81%
    23:00 -1°C° 0.1 mm 1 mps 727 mmHg 82%

    22 January, Monday

    Time Temperature Precipitation Wind Pressure Humidity
    00:00 -1°C° 0.1 mm 1 mps 727 mmHg 83%
    01:00 -1°C° 0.1 mm 1 mps 727 mmHg 85%
    02:00 -1°C° 0.3 mm 1 mps 727 mmHg 86%
    03:00 -1°C° 0.3 mm 1 mps 726 mmHg 88%
    04:00 -1°C° 0.3 mm 1 mps 726 mmHg 90%
    05:00 -1°C° 0.2 mm 1 mps 726 mmHg 90%
    06:00 -1°C° 0.2 mm 1 mps 726 mmHg 91%
    07:00 -1°C° 0.2 mm 1 mps 726 mmHg 92%
    08:00 0°C° 0.5 mm 1 mps 726 mmHg 91%
    09:00 0°C° 0.5 mm 1 mps 726 mmHg 90%
    10:00 +1°C° 0.5 mm 1 mps 726 mmHg 88%
    11:00 +2°C° 0.3 mm 1 mps 726 mmHg 87%
    12:00 +3°C° 0.3 mm 1 mps 727 mmHg 86%
    13:00 +4°C° 0.3 mm 1 mps 727 mmHg 85%
    14:00 +4°C° 0.1 mm 1 mps 727 mmHg 86%
    15:00 +4°C° 0.1 mm 1 mps 727 mmHg 88%
    16:00 +4°C° 0.1 mm 1 mps 728 mmHg 90%
    17:00 +3°C° 0 mm 1 mps 728 mmHg 92%
    18:00 +2°C° 0 mm 1 mps 728 mmHg 93%
    19:00 0°C° 0 mm 0 mps 728 mmHg 94%
    20:00 +1°C° 0 mm 0 mps 729 mmHg 94%
    21:00 +2°C° 0 mm 1 mps 729 mmHg 93%
    22:00 +3°C° 0 mm 1 mps 729 mmHg 92%
    23:00 +3°C° 0.3 mm 1 mps 729 mmHg 92%

    23 January, Tuesday

    Time Temperature Precipitation Wind Pressure Humidity
    00:00 +3°C° 0.3 mm 1 mps 729 mmHg 93%
    01:00 +3°C° 0.3 mm 1 mps 729 mmHg 93%
    02:00 +3°C° 0.4 mm 1 mps 729 mmHg 93%
    03:00 +4°C° 0.4 mm 1 mps 729 mmHg 93%
    04:00 +4°C° 0.4 mm 1 mps 729 mmHg 93%
    05:00 +4°C° 0.1 mm 1 mps 729 mmHg 93%
    06:00 +4°C° 0.1 mm 1 mps 729 mmHg 93%
    07:00 +4°C° 0.1 mm 1 mps 730 mmHg 93%
    08:00 +5°C° 0.2 mm 1 mps 730 mmHg 93%
    09:00 +5°C° 0.2 mm 1 mps 730 mmHg 92%
    10:00 +6°C° 0.2 mm 1 mps 731 mmHg 92%
    11:00 +7°C° 0 mm 1 mps 731 mmHg 91%
    12:00 +8°C° 0 mm 1 mps 731 mmHg 90%
    13:00 +9°C° 0 mm 1 mps 731 mmHg 89%
    14:00 +8°C° 0 mm 1 mps 732 mmHg 91%
    15:00 +8°C° 0 mm 1 mps 732 mmHg 93%
    16:00 +7°C° 0 mm 1 mps 732 mmHg 95%
    17:00 +7°C° 0 mm 1 mps 733 mmHg 95%
    18:00 +6°C° 0 mm 1 mps 733 mmHg 95%
    19:00 +5°C° 0 mm 1 mps 733 mmHg 95%
    20:00 +5°C° 0 mm 1 mps 734 mmHg 95%
    21:00 +5°C° 0 mm 1 mps 734 mmHg 94%
    22:00 +5°C° 0 mm 1 mps 734 mmHg 93%
    23:00 +5°C° 0 mm 1 mps 734 mmHg 93%
    Show more